FO-29
1 24278U 96046B 14072.31301049 .00000028 00000-0 64212-4 0 3299
2 24278 098.5191 099.3816 0350717 186.2385 239.9821 13.53017295867708
SO-33
1 25509U 98061B 14071.82343755 .00001383 00000-0 26224-3 0 7076
2 25509 031.4329 346.3429 0349912 350.1693 050.4985 14.29361255803359
RS-22
1 27939U 03042A 14072.89347652 .00001626 00000-0 31152-3 0 3047
2 27939 097.8036 251.8119 0014072 052.8574 307.3950 14.64984407558773
VO-52
1 28650U 05017B 14072.76010259 .00004141 00000-0 48856-3 0 6810
2 28650 097.5611 082.5228 0027206 111.8635 248.5478 14.84968327479067
HO-68
1 36122U 09072B 14072.72199212 -.00000043 00000-0 00000 0 0 4069
2 36122 100.2631 127.4626 0007708 098.1707 262.0283 13.16312825203876
AO-73
1 39444U 13066AE 14072.43442398 .00004113 00000-0 56222-3 0 889
2 39444 097.7833 146.3395 0062223 193.1724 166.7831 14.77746207 15324
UO-11
1 14781U 84021B 14072.59862499 .00001381 00000-0 18320-3 0 4379
2 14781 097.8632 134.5440 0010116 129.4722 230.7387 14.81388567613815
AO-16
1 20439U 90005D 14071.84006676 .00000317 00000-0 13345-3 0 9767
2 20439 098.5007 011.0283 0012115 086.2445 337.2060 14.32303322260690
LO-19
1 20442U 90005G 14071.82734137 .00000306 00000-0 12877-3 0 9148
2 20442 098.4714 011.9632 0012992 076.5457 283.7175 14.32508141260893
AO-27
1 22825U 93061C 14071.48348469 .00000216 00000-0 10158-3 0 6171
2 22825 098.6531 018.1320 0007894 214.0584 262.4307 14.29674593 66961
IO-26
1 22826U 93061D 14072.45594839 .00000306 00000-0 13579-3 0 3755
2 22826 098.6474 019.3337 0008640 204.2360 155.8416 14.29970996 67235
GO-32
1 25397U 98043D 14072.44081998 .00000154 00000-0 86142-4 0 2984
2 25397 098.4577 034.0599 0001073 170.9552 343.4593 14.23416279814247
NO-44
1 26931U 01043C 14071.81285175 .00000260 00000-0 13243-3 0 5539
2 26931 067.0506 286.9672 0005417 274.8916 085.1567 14.30060814649829
SO-50
1 27607U 02058C 14072.46842503 .00001292 00000-0 21703-3 0 3290
2 27607 064.5569 164.0806 0037038 044.4770 315.9294 14.73516274603373
CO-55
1 27844U 03031E 14071.50720674 .00000454 00000-0 22756-3 0 8768
2 27844 098.6998 081.6702 0009867 187.8132 334.6404 14.21421514554845
CO-57
1 27848U 03031J 14071.62323480 .00000374 00000-0 19241-3 0 8170
2 27848 098.7091 081.4427 0009635 193.8399 284.4277 14.21120402554786
AO-51
1 28375U 04025K 14071.92140824 .00000519 00000-0 16756-3 0 7934
2 28375 098.2407 022.1651 0081876 283.4283 075.7791 14.41315421510035
CP3
1 31129U 07012N 14071.92488770 .00002479 00000-0 55758-3 0 6952
2 31129 097.9246 054.8487 0097585 311.3983 100.1082 14.54399438366044
CO-65
1 32785U 08021C 14071.76385706 .00003212 00000-0 38321-3 0 8921
2 32785 097.7120 126.1888 0015170 142.6063 354.9808 14.84858251317715
PRISM
1 33493U 09002B 14072.79111409 .00008087 00000-0 87604-3 0 7268
2 33493 098.2424 244.4812 0018153 037.8007 322.4459 14.88384222277985
SOHLA-1
1 33496U 09002E 14072.13654054 .00001148 00000-0 19695-3 0 2965
2 33496 098.1569 192.9146 0006784 177.9790 306.1041 14.70651773275394
TISAT-1
1 36799U 10035E 14072.76338121 .00005131 00000-0 60827-3 0 9893
2 36799 098.0176 164.0896 0012733 272.2608 087.7146 14.84917772198555
STUDSAT
1 36801U 10035G 14072.38703517 .00020347 00000-0 19196-2 0 7852
2 36801 098.0330 170.0214 0010308 245.0347 161.5587 14.93757273198813
ALMASAT-1
1 38078U 12006B 14072.49539350 .00047695 00000-0 10620-2 0 9630
2 38078 069.4707 288.8187 0628132 158.8056 204.0556 14.41392156107802
XATCOBEO
1 38082U 12006F 14072.85883234 .00242072 14720-4 27821-2 0 319
2 38082 069.4479 217.1594 0354241 119.6239 037.1303 15.11973016109776
CUBEBUG-1
1 39153U 13018D 14072.87193895 .00002784 00000-0 39869-3 0 9368
2 39153 098.0481 153.3668 0017040 299.4799 060.4710 14.77306413 47483
ESTCUBE-1
1 39161U 13021C 14072.85094517 .00002192 00000-0 37637-3 0 9094
2 39161 098.1014 154.4467 0009640 346.4635 013.6286 14.69678526 45599
MET-3/5
1 21655U 91056A 14072.78194777 .00000242 00000-0 59744-3 0 9242
2 21655 082.5542 063.8216 0013659 170.6307 189.5073 13.17051357 85426
MET-2/21
1 22782U 93055A 14072.84838193 .00000056 00000-0 37093-4 0 12
2 22782 082.5468 248.9419 0022852 169.9571 303.7626 13.83728035 36938
OKEAN-4
1 23317U 94066A 14072.15406885 .00002375 00000-0 27305-3 0 4769
2 23317 082.5412 157.9495 0021820 060.4173 350.5412 14.85233811 48855
NOAA-14
1 23455U 94089A 14072.41676247 .00000014 00000-0 30612-4 0 6820
2 23455 098.7809 157.5414 0008502 315.4771 182.4387 14.13956348990412
NOAA-15
1 25338U 98030A 14072.45642429 .00000331 00000-0 15923-3 0 1117
2 25338 098.7484 066.5282 0011633 069.9747 082.2356 14.25366354823208
RESURS
1 25394U 98043A 14072.48807418 .00000110 00000-0 65465-4 0 6080
2 25394 098.4022 040.9460 0001981 145.1922 321.9443 14.24377072814697
FENGYUN1
1 25730U 99025A 14072.86965465 .00003290 00000-0 18284-2 0 1019
2 25730 098.9057 034.6041 0028812 019.5014 033.4085 14.11572946764073
OKEAN-0
1 25860U 99039A 14071.84984515 .00001446 00000-0 22216-3 0 1979
2 25860 098.0318 036.3622 0001651 082.2210 300.1968 14.75058365787959
NOAA-16
1 26536U 00055A 14072.44190882 .00000342 00000-0 20776-3 0 5981
2 26536 099.0011 132.3393 0011572 097.8548 022.9074 14.13002627694598
NOAA-17
1 27453U 02032A 14072.49350667 .00000273 00000-0 13465-3 0 5059
2 27453 098.3130 077.2535 0012954 096.6964 016.6244 14.24704759609064
NOAA-18
1 28654U 05018A 14072.44896503 .00000215 00000-0 14258-3 0 9869
2 28654 099.1394 050.0768 0014660 169.0141 300.4661 14.11967564454059
NOAA-19
1 33591U 09005A 14072.45673993 .00000359 00000-0 22187-3 0 1571
2 33591 098.9367 017.8276 0014572 033.9188 073.0398 14.11662329262484
HUBBLE
1 20580U 90037B 14071.13218308 .00003832 00000-0 25234-3 0 4566
2 20580 028.4702 314.9466 0003150 334.8851 156.4768 15.04888685110084
ISS
1 25544U 98067A 14072.90401363 .00063891 00000-0 10851-2 0 8612
2 25544 051.6471 211.8588 0004571 300.6729 148.1762 15.50846537876546
CO-58
1 28895U 05043F 14072.79121650 .00001482 00000-0 30618-3 0 7162
2 28895 097.8432 279.5778 0016342 314.4182 045.5681 14.61659254446311
FALCON
1 30776U 07006E 14072.20410025 .00013966 00000-0 74392-3 0 8222
2 30776 035.4307 347.3309 0001478 247.4448 238.9939 15.14456421386169
MAST
1 31126U 07012K 14072.44203508 .00001468 00000-0 33227-3 0 9958
2 31126 097.9066 058.3824 0090947 293.2055 239.0815 14.55085275366462
CAPE1
1 31130U 07012P 14071.82126010 .00002357 00000-0 53295-3 0 08
2 31130 097.9257 054.3356 0098196 312.9339 046.3651 14.54171790365804
COMPASS
1 32787U 08021E 14072.11415592 .00004709 00000-0 52867-3 0 8743
2 32787 097.7145 128.3772 0015315 135.9063 224.3378 14.87148758317906
AAUSAT2
1 32788U 08021F 14072.76744918 .00005741 00000-0 63308-3 0 8628
2 32788 097.7153 129.8885 0015002 132.5817 227.6668 14.87788928318054
DO-64
1 32789U 08021G 14072.43969932 .00011137 00000-0 11059-2 0 8999
2 32789 097.7321 135.2016 0013778 124.5154 357.4043 14.91825085318210
CO-66
1 32791U 08021J 14072.39215466 .00004264 00000-0 49318-3 0 8592
2 32791 097.7138 127.6019 0015861 137.7241 222.5201 14.85967764317823
RS-30
1 32953U 08025A 14072.69288196 .00000010 00000-0 00000 0 0 7336
2 32953 082.4980 260.5878 0018801 006.9383 353.1959 12.43043605263394
METEOR-M
1 35865U 09049A 14072.66652050 .00000021 00000-0 28927-4 0 3420
2 35865 098.5631 122.9207 0002981 028.4477 331.6865 14.21912273232760
RS-38
1 35869U 09049E 14072.74753001 .00000101 00000-0 64546-4 0 2819
2 35869 098.5552 122.8320 0004655 027.4082 106.5564 14.22188519232801
